EHI
0 1 2 2 1 0 0 0 1 0 0 1 0 1 2 4 5 6 6 4 3 4 5 4 3 4 4 5 6 6 5 2 0 1 0 0 0 0 0 0 0 0 0
1 1 2 2 1 1 0 0 1 0 0 1 1 1 2 5 7 7 6 4 2 3 4 2 1 2 4 4 4 5 3 1 1 1 1 0 0 0 0 0 0 0 0
2 1 2 2 2 2 1 0 0 0 0 1 1 1 1 3 6 7 5 4 3 3 3 1 0 1 3 2 2 3 2 1 1 2 1 0 1 2 2 1 0 0 0
2 1 1 3 3 2 1 0 0 0 0 0 1 1 1 2 4 5 4 3 3 2 2 1 0 0 1 0 1 2 1 1 2 3 1 0 1 3 5 3 1 0 0
2 1 2 4 4 2 1 0 0 0 0 0 0 0 0 1 2 4 4 3 2 2 1 1 0 0 0 0 0 1 1 1 2 2 1 0 0 2 4 3 1 0 0
3 2 3 5 4 1 0 0 0 0 0 0 0 0 0 1 1 3 3 3 2 2 1 0 0 0 0 0 1 1 1 1 1 1 0 0 0 0 1 1 0 0 0
3 3 5 7 5 2 0 0 0 0 0 0 0 0 0 0 0 1 1 1 1 2 1 0 0 0 1 1 1 2 2 1 0 0 0 0 0 0 0 0 0 0 0
3 3 4 7 6 3 1 1 0 0 0 0 0 0 0 0 0 0 0 0 0 1 1 1 0 0 1 2 2 1 1 0 0 0 0 0 0 0 0 0 0 0 0
4 3 4 5 6 4 2 2 1 0 0 0 0 0 0 0 0 0 0 0 0 0 1 1 0 0 1 2 2 1 0 0 0 0 0 0 0 0 0 0 0 0 0
4 4 3 4 4 4 3 2 1 1 0 0 0 0 0 0 0 0 0 0 0 0 1 1 0 0 0 1 1 0 0 0 0 0 0 0 0 0 0 0 0 0 0
4 3 3 3 3 3 3 3 3 2 1 1 0 0 0 0 0 0 0 0 0 0 0 0 0 0 0 0 0 0 0 0 0 0 0 0 0 0 0 0 0 0 0
3 3 3 3 3 3 3 3 3 3 3 2 1 1 0 0 0 0 0 0 0 0 0 0 0 0 0 0 0 0 0 0 0 0 0 0 0 0 0 0 0 0 0
4 4 4 4 3 3 3 3 3 3 3 3 3 2 1 0 0 0 0 0 0 0 0 0 0 0 0 0 0 0 0 0 0 0 0 0 0 0 0 0 0 0 0
3 4 6 6 4 3 3 3 3 3 3 3 3 3 2 0 0 0 0 0 0 0 0 0 0 0 0 0 0 0 0 0 0 0 0 0 0 0 0 0 0 0 0
2 4 6 7 6 4 3 3 3 3 3 3 3 2 1 0 0 0 0 0 0 0 0 0 0 0 0 0 0 0 0 0 0 0 0 0 0 0 0 0 0 0 0
3 3 5 6 5 4 4 3 3 3 3 3 3 2 1 0 0 0 0 0 0 0 0 0 0 0 0 0 0 0 0 0 0 0 0 0 0 0 0 0 0 0 0
3 3 4 4 4 3 3 3 3 3 3 3 3 2 2 2 1 0 0 0 0 0 0 0 0 0 0 0 0 0 0 0 0 0 0 0 0 0 0 0 0 0 0
3 3 4 4 2 1 1 2 2 2 2 2 2 2 2 2 2 1 0 0 0 0 0 0 0 0 0 0 0 0 0 0 0 0 0 0 0 0 0 0 0 0 0
3 3 4 5 3 1 0 1 1 1 1 1 1 1 1 1 2 2 1 1 1 0 0 0 0 0 0 0 0 0 0 0 0 0 0 0 0 0 0 0 0 0 0
2 3 4 5 3 1 0 0 0 0 0 0 0 0 0 0 1 1 1 2 2 1 0 0 0 0 0 0 0 0 0 0 0 0 0 0 0 0 0 0 0 0 0
1 2 5 5 3 1 0 0 0 0 0 0 0 0 0 0 0 0 1 1 2 1 0 0 0 0 0 0 0 0 0 0 0 0 0 0 0 0 0 0 0 0 0
1 2 4 5 3 2 0 0 0 0 0 0 0 0 0 0 0 0 0 0 1 1 0 0 0 0 0 0 0 0 0 0 0 0 0 0 0 0 0 0 0 0 0
1 2 3 4 3 1 0 0 0 0 0 0 0 0 0 0 0 0 0 0 0 0 0 0 0 0 0 0 0 0 0 0 0 0 0 0 0 0 0 0 0 0 0
2 3 3 3 2 1 0 0 0 0 0 0 0 0 0 0 0 0 0 0 0 0 0 0 0 0 0 0 0 0 0 0 0 0 0 0 0 0 0 0 0 0 0
2 3 3 3 2 1 0 0 0 0 0 0 0 0 0 0 0 0 0 0 0 0 0 0 0 0 0 0 0 0 0 0 0 0 0 0 0 0 0 0 0 0 0
2 3 3 3 2 1 0 0 0 0 0 0 0 0 0 0 0 0 0 0 0 0 0 0 0 0 0 0 0 0 0 0 0 0 0 0 0 0 0 0 0 0 0
Wind_Speed
1 1 5 7 7 8 9 9 9 10 9 9 9 8 8 8 7 8 8 9 9 9 8 8 8 8 8 9 10 10 11 10 10 10 9 8 9 9 9 8 8 5 10
3 0 5 7 8 9 9 9 9 10 10 10 10 9 9 9 10 10 11 10 10 9 8 8 8 9 9 9 9 10 10 10 10 9 8 7 8 8 8 8 8 5 9
4 2 4 7 8 9 9 9 10 11 11 10 10 10 10 9 10 11 11 10 9 8 8 8 8 8 8 9 9 10 10 10 9 9 7 3 4 8 8 8 8 9 9
5 3 4 8 9 9 9 9 10 11 11 11 11 11 10 9 10 10 10 10 9 8 8 8 8 8 8 9 9 9 9 10 9 8 4 3 3 8 9 9 8 9 8
5 3 5 8 9 9 9 10 10 10 11 11 11 12 12 11 11 10 10 9 9 8 7 7 7 8 9 9 9 10 10 10 10 7 4 3 3 7 8 9 8 8 8
5 4 5 8 9 9 10 10 10 10 10 11 11 12 11 11 10 10 10 9 8 8 8 7 8 8 8 9 9 10 10 10 8 5 4 3 3 7 8 8 8 7 7
5 3 4 8 9 9 9 10 10 10 10 11 11 11 11 11 10 9 9 9 8 8 8 8 8 8 8 8 9 10 10 9 6 4 3 3 3 7 7 7 7 7 7
6 4 4 7 8 8 8 9 9 10 10 11 11 11 12 11 10 10 9 8 7 8 8 8 8 8 8 9 9 10 9 8 6 5 3 3 6 7 7 7 8 8 7
5 4 3 3 4 6 7 7 8 9 9 10 10 11 11 11 10 9 9 8 7 8 8 7 8 8 8 9 10 10 10 9 5 3 4 3 6 7 7 8 9 8 7
4 4 3 2 2 2 2 5 7 7 8 9 9 10 10 9 9 8 8 8 8 8 7 7 7 8 9 9 9 10 10 8 4 3 2 3 7 8 9 10 10 9 8
3 3 3 2 2 1 2 3 4 6 6 7 6 9 8 4 4 5 6 8 8 8 7 7 8 9 10 9 9 9 7 3 4 3 2 6 8 8 10 10 10 10 10
3 3 3 3 2 2 2 2 2 2 3 3 3 3 3 3 3 5 6 8 8 8 8 9 10 9 7 4 6 7 3 4 3 2 3 8 9 9 10 10 10 10 11
3 3 3 3 3 2 2 2 1 1 2 2 3 3 3 3 3 3 3 4 5 6 5 7 6 4 4 4 4 4 4 3 2 2 4 9 10 10 10 11 11 11 11
3 3 3 4 3 3 2 2 2 1 1 2 2 3 3 2 2 2 2 3 3 3 4 4 4 5 5 5 5 5 5 3 3 2 4 9 10 10 11 11 11 11 11
3 3 3 4 4 3 2 2 2 1 2 2 2 3 3 2 2 2 2 2 3 3 3 4 4 5 5 5 5 6 5 5 4 4 3 8 9 10 11 11 11 11 11
2 3 3 4 4 4 3 2 2 2 2 2 2 2 3 2 2 2 3 3 3 3 3 3 4 4 4 4 5 5 5 5 5 4 3 4 8 9 10 10 10 10 10
3 3 3 4 4 4 3 3 2 2 2 2 1 2 3 3 2 2 3 2 2 3 4 4 4 4 5 5 5 5 4 4 4 4 4 3 4 7 9 9 9 9 8
4 3 3 4 4 3 3 2 2 2 3 2 1 2 3 3 3 3 3 2 2 3 3 3 3 4 4 4 4 3 3 3 4 4 3 3 3 3 5 8 8 8 7
4 4 4 4 4 3 3 3 3 3 3 2 2 2 2 3 3 3 2 2 2 3 3 3 3 3 4 3 3 3 3 3 3 4 4 4 3 3 3 5 6 6 6
4 4 4 4 3 3 3 3 2 3 2 2 2 2 2 2 3 3 2 2 3 3 3 3 3 3 3 2 4 4 3 3 3 3 3 3 3 3 2 3 2 3 5
4 4 4 4 3 3 2 2 2 1 1 1 1 2 2 2 2 3 2 2 3 3 2 3 3 3 2 2 4 3 3 3 4 3 2 2 3 3 2 2 2 2 1
5 4 4 4 3 3 2 2 2 2 1 1 0 1 2 2 2 2 2 2 2 3 3 3 3 2 1 1 3 3 2 3 3 3 2 2 2 2 3 2 2 2 1
5 5 4 3 3 3 3 2 2 2 2 2 1 1 0 1 2 2 2 2 2 2 2 2 3 3 2 1 1 3 3 2 1 2 3 2 2 2 2 1 2 1 1
5 5 5 4 4 3 3 3 4 2 1 1 1 1 0 1 1 2 2 2 2 2 2 2 2 2 3 1 1 1 2 3 3 0 2 2 2 2 1 1 1 1 1
5 5 4 4 4 3 3 4 3 2 1 0 0 0 0 0 1 1 2 2 2 2 2 2 2 2 2 2 1 1 2 2 2 3 1 2 2 2 1 1 1 1 1
3 4 4 4 3 3 3 3 3 3 2 2 1 1 1 0 1 1 2 2 2 2 2 2 3 3 2 2 1 1 2 2 2 2 2 1 0 2 2 1 1 1 1
Wind_Direction
302 321 55 61 62 63 62 60 57 56 58 58 58 64 73 72 80 97 105 112 110 110 107 107 104 102 99 102 110 111 109 106 105 101 100 101 101 102 102 99 98 98 99
168 98 69 69 69 67 65 62 61 60 60 58 57 61 70 75 82 93 97 98 101 102 100 101 101 99 96 97 102 105 105 103 102 99 98 100 104 107 106 103 102 100 101
131 105 81 74 74 71 69 66 64 63 61 59 58 59 64 73 81 89 93 95 97 99 99 99 97 97 96 99 101 102 104 104 101 97 92 82 101 106 107 106 105 104 104
119 104 88 83 79 77 74 71 69 66 64 61 60 58 58 72 85 89 94 95 95 98 99 99 99 98 100 100 102 103 103 99 98 95 81 81 95 104 106 106 107 104 103
107 98 91 88 85 80 75 73 71 69 69 66 63 60 60 75 84 88 89 89 89 92 96 101 101 101 100 100 100 100 99 96 92 85 76 75 84 105 106 106 107 103 102
113 103 98 95 90 82 77 74 72 70 69 68 65 63 65 72 79 82 85 85 87 93 99 101 103 102 99 97 97 96 95 91 88 81 81 84 93 109 109 107 107 107 106
126 114 107 101 94 87 81 75 73 71 69 68 65 64 66 72 78 80 83 84 84 90 98 99 99 98 96 99 100 95 92 91 89 88 79 79 100 109 109 112 114 109 108
128 121 110 105 101 92 87 81 75 72 70 68 67 66 67 72 77 77 79 81 86 93 96 97 97 98 98 97 95 94 92 93 94 94 80 79 101 103 104 115 117 111 106
124 118 106 101 101 96 89 83 77 74 72 71 69 67 69 69 71 73 72 79 85 92 94 97 98 98 96 95 93 91 87 85 80 82 87 78 93 94 99 110 113 108 106
121 127 120 104 94 93 84 84 81 74 70 68 69 67 66 66 67 67 67 74 79 83 89 100 105 102 97 94 90 88 85 82 73 72 70 88 93 92 96 102 104 104 102
121 135 138 130 121 115 100 82 73 68 62 62 63 66 58 41 43 52 58 68 71 74 76 93 104 99 94 92 89 86 83 75 73 61 68 92 96 95 94 97 99 100 100
152 162 162 153 147 130 113 79 54 58 47 50 46 50 47 42 37 48 48 56 62 64 66 83 96 92 82 81 83 81 74 77 70 64 82 94 96 96 95 97 98 98 98
171 163 164 162 154 138 112 99 65 51 45 44 51 57 56 52 37 35 32 30 36 48 48 63 73 72 74 77 77 75 77 73 61 58 80 93 93 96 98 98 97 97 94
153 161 161 157 144 139 126 114 98 81 64 53 46 62 68 62 49 41 37 28 33 40 53 57 66 72 75 75 80 81 79 73 64 56 75 88 93 96 97 97 95 95 94
152 154 160 152 143 142 127 118 110 106 87 73 62 58 69 71 64 60 51 44 42 52 65 67 68 72 72 71 79 83 78 75 68 59 64 84 95 100 97 94 92 92 93
150 155 147 140 143 135 129 125 126 114 100 86 76 74 77 80 76 70 65 52 46 57 67 76 76 75 70 73 75 75 76 75 71 69 59 74 86 97 97 94 93 95 94
149 141 142 141 128 127 131 135 122 114 109 100 88 81 84 82 82 77 74 65 51 64 71 72 68 71 76 73 69 69 71 71 72 70 64 58 69 84 90 93 95 94 95
142 130 120 124 120 120 120 117 108 104 97 91 79 76 81 85 89 84 79 70 67 72 74 80 73 74 69 68 67 65 66 71 73 71 68 64 61 65 73 84 87 87 94
144 132 116 109 111 113 103 92 90 92 86 81 72 67 71 79 88 96 89 81 82 79 74 88 74 84 83 75 78 69 58 63 69 75 70 69 66 64 59 69 75 81 88
136 128 121 114 105 99 96 87 73 68 72 73 76 77 82 74 78 89 91 82 88 86 76 83 86 75 87 89 86 67 51 51 57 62 68 67 63 62 58 54 51 61 79
129 128 129 124 122 107 99 108 109 99 79 73 90 95 95 89 84 88 94 93 96 102 109 108 101 89 72 80 83 58 31 36 50 43 46 55 55 52 57 63 55 41 42
149 148 145 141 138 126 119 128 139 142 129 129 64 91 112 110 103 107 111 118 117 111 99 98 104 100 86 84 109 99 51 10 11 23 30 47 40 38 47 66 57 56 46
163 163 162 158 144 131 116 95 77 58 45 33 18 357 162 120 120 126 136 134 126 123 133 133 124 120 124 52 95 127 133 180 323 352 14 29 33 43 28 28 46 36 69
183 168 161 155 149 141 126 120 121 125 150 219 221 241 254 147 153 146 136 138 134 132 138 154 138 133 132 136 55 74 135 150 141 63 349 360 15 32 23 35 33 25 40
174 163 165 155 153 155 148 143 139 142 177 180 140 135 215 285 190 166 143 141 142 145 149 146 127 126 131 142 148 124 90 80 98 127 141 335 359 352 356 5 19 16 25
160 155 158 154 161 159 154 155 155 160 161 149 165 194 228 270 282 234 157 145 147 150 152 152 147 138 135 127 119 116 131 131 144 136 146 173 315 313 342 1 13 356 358